STARLINK-3060 (49155 NORAD) Tracking and Keplerian Element Data

This shows tracking and keplerian element data for the satellite.

Feedback or suggestion? Click here.




ElementValue
Catalog49155
NameSTARLINK-3060
Epoch Orbit367
Epoch Day300.58334491
Epoch Year2021
RAAN4.6929
Inclination70.0004
Eccentricity0.0004036
Argument of Perigee291.1418
Mean Anonmoly92.9187
Mean Motion15.69635387
Decay Rate0.00147395
L11 49155U 21082AB 21300.58334491 .00147395 00000-0 12205-2 0 9991
L22 49155 70.0004 4.6929 0004036 291.1418 92.9187 15.69635387 3671

Live tracking and technical data element details for STARLINK-3060 (NORAD 49155). STARLINK-3060 can be tracked NOW for your location showing map with azimuth and elevation plus other details from your city location.

Track the satellite on the map from your city or location and see movement details for azimuth, elevation, latitude, longitude, range, height, and movement on the map or in text.







IsCatalogInMostPopularTable: catalog: 49155, numindb: 5
Update: records affected: 1



GetName: 49155 STARLINK-3060

Hit Count: updated at: Thu, 28 Oct 2021 12:16:38 GMT